Station Historical Data
Daily Summary for March 22, 2012 Units:  English    Metric   Both
« Previous Day
Next Day »
Daily Weekly Monthly Yearly Custom
  High: Low: Average:
Temperature: 70.5 °F 61.6 °F 66 °F
Dew Point: 63.2 °F 58.5 °F 60.7 °F
Humidity: 93% 67% 84%
Wind Speed: 21.0mph 2.0mph 8mph
Wind Gust: 26.0mph - -
Wind- - SE
Pressure: 30.08 in 29.93 in -
Precipitation: 0.24 in    
Historical Graphs
 
 
Tabular Data for March 22, 2012
Time Temperature Dew Point Pressure Wind Wind Speed Wind Gust Humidity Rainfall Rate (Hourly) Conditions
00:00 70.2 °F 58.7 °F 30.03 in ESE 8.0 mph 11.0 mph 67% 0.00 in
00:01 70.2 °F 58.7 °F 30.03 in SE 6.0 mph 11.0 mph 67% 0.00 in
00:06 70.3 °F 58.8 °F 30.03 in ESE 12.0 mph 12.0 mph 67% 0.00 in
00:11 70.4 °F 58.9 °F 30.03 in SE 12.0 mph 12.0 mph 67% 0.00 in
00:16 70.3 °F 58.8 °F 30.03 in SE 8.0 mph 13.0 mph 67% 0.00 in
00:21 70.5 °F 59.0 °F 30.03 in SE 10.0 mph 12.0 mph 67% 0.00 in
00:26 70.4 °F 58.9 °F 30.03 in ESE 12.0 mph 12.0 mph 67% 0.00 in
00:31 70.3 °F 58.8 °F 30.03 in SE 10.0 mph 13.0 mph 67% 0.00 in
00:36 70.2 °F 58.7 °F 30.03 in SE 7.0 mph 11.0 mph 67% 0.00 in
00:41 70.2 °F 58.7 °F 30.03 in ESE 9.0 mph 14.0 mph 67% 0.00 in
00:46 70.2 °F 58.7 °F 30.03 in ESE 10.0 mph 13.0 mph 67% 0.00 in
00:51 70.1 °F 59.1 °F 30.03 in SE 7.0 mph 12.0 mph 68% 0.00 in
00:56 70.1 °F 59.1 °F 30.03 in ESE 9.0 mph 12.0 mph 68% 0.00 in
01:01 70.0 °F 58.5 °F 30.03 in ESE 12.0 mph 16.0 mph 67% 0.00 in
01:06 70.1 °F 58.7 °F 30.03 in SE 13.0 mph 15.0 mph 67% 0.00 in
01:11 70.1 °F 58.7 °F 30.03 in ESE 11.0 mph 14.0 mph 67% 0.00 in
01:16 70.1 °F 59.1 °F 30.03 in SE 9.0 mph 15.0 mph 68% 0.00 in
01:21 70.0 °F 59.0 °F 30.03 in ESE 9.0 mph 11.0 mph 68% 0.00 in
01:26 69.9 °F 58.9 °F 30.03 in SE 5.0 mph 13.0 mph 68% 0.00 in
01:31 69.8 °F 58.8 °F 30.03 in ESE 9.0 mph 14.0 mph 68% 0.00 in
01:36 69.9 °F 58.9 °F 30.03 in ESE 8.0 mph 12.0 mph 68% 0.00 in
01:41 70.0 °F 59.0 °F 30.03 in SE 7.0 mph 16.0 mph 68% 0.00 in
01:46 69.9 °F 58.9 °F 30.03 in SE 9.0 mph 14.0 mph 68% 0.00 in
01:51 69.8 °F 58.8 °F 30.03 in ESE 9.0 mph 12.0 mph 68% 0.00 in
01:56 69.9 °F 58.9 °F 30.03 in ESE 9.0 mph 15.0 mph 68% 0.00 in
02:01 69.8 °F 58.8 °F 30.02 in ESE 12.0 mph 15.0 mph 68% 0.00 in
02:06 69.8 °F 58.8 °F 30.02 in ESE 12.0 mph 12.0 mph 68% 0.00 in
02:12 69.9 °F 58.9 °F 30.03 in ESE 10.0 mph 19.0 mph 68% 0.00 in
02:17 69.9 °F 58.9 °F 30.02 in ESE 10.0 mph 12.0 mph 68% 0.00 in
02:22 70.0 °F 59.0 °F 30.03 in SE 11.0 mph 18.0 mph 68% 0.00 in
02:27 69.9 °F 59.3 °F 30.04 in SW 7.0 mph 14.0 mph 69% 0.00 in
02:32 69.3 °F 59.1 °F 30.03 in SW 5.0 mph 5.0 mph 70% 0.00 in
02:37 68.9 °F 59.1 °F 30.03 in South 3.0 mph 8.0 mph 71% 0.00 in
02:42 68.8 °F 59.0 °F 30.02 in SSW 3.0 mph 6.0 mph 71% 0.00 in
02:47 68.4 °F 59.0 °F 30.01 in SE 3.0 mph 5.0 mph 72% 0.00 in
02:52 68.1 °F 59.1 °F 30.01 in SE 7.0 mph 7.0 mph 73% 0.00 in
02:57 68.2 °F 58.8 °F 30.00 in ESE 4.0 mph 6.0 mph 72% 0.00 in
03:02 68.0 °F 59.0 °F 30.00 in SE 7.0 mph 10.0 mph 73% 0.00 in
03:07 68.1 °F 59.1 °F 29.99 in ESE 5.0 mph 11.0 mph 73% 0.00 in
03:12 67.9 °F 58.9 °F 29.99 in SE 6.0 mph 9.0 mph 73% 0.00 in
03:17 67.8 °F 58.8 °F 29.98 in SE 4.0 mph 8.0 mph 73% 0.00 in
03:22 67.8 °F 58.8 °F 29.97 in SE 7.0 mph 10.0 mph 73% 0.00 in
03:27 68.0 °F 59.0 °F 29.97 in SE 10.0 mph 14.0 mph 73% 0.00 in
03:32 68.1 °F 59.1 °F 29.96 in ESE 11.0 mph 16.0 mph 73% 0.00 in
03:37 68.4 °F 59.0 °F 29.95 in SE 8.0 mph 14.0 mph 72% 0.00 in
03:42 68.4 °F 59.0 °F 29.94 in SE 8.0 mph 14.0 mph 72% 0.00 in
03:47 68.5 °F 59.1 °F 29.94 in SE 13.0 mph 15.0 mph 72% 0.00 in
03:53 68.5 °F 59.1 °F 29.94 in ESE 13.0 mph 19.0 mph 72% 0.00 in
03:58 68.6 °F 59.2 °F 29.94 in ESE 10.0 mph 13.0 mph 72% 0.00 in
04:03 68.6 °F 59.2 °F 29.93 in ESE 10.0 mph 14.0 mph 72% 0.00 in
04:08 68.6 °F 59.2 °F 29.93 in SE 12.0 mph 14.0 mph 72% 0.00 in
04:12 68.6 °F 59.2 °F 29.94 in ESE 10.0 mph 17.0 mph 72% 0.00 in
04:18 68.7 °F 59.3 °F 29.94 in ESE 8.0 mph 17.0 mph 72% 0.00 in
04:23 68.8 °F 59.4 °F 29.94 in ESE 11.0 mph 17.0 mph 72% 0.00 in
04:28 68.7 °F 59.3 °F 29.95 in ESE 9.0 mph 14.0 mph 72% 0.00 in
04:33 68.7 °F 59.3 °F 29.95 in ESE 13.0 mph 16.0 mph 72% 0.00 in
04:38 68.8 °F 59.4 °F 29.95 in SE 7.0 mph 16.0 mph 72% 0.00 in
04:43 68.7 °F 59.3 °F 29.96 in SE 15.0 mph 15.0 mph 72% 0.00 in
04:48 68.6 °F 59.2 °F 29.96 in ESE 9.0 mph 12.0 mph 72% 0.00 in
04:53 68.6 °F 59.2 °F 29.95 in SE 6.0 mph 14.0 mph 72% 0.00 in
04:58 68.4 °F 59.4 °F 29.96 in ESE 10.0 mph 13.0 mph 73% 0.00 in
05:03 68.3 °F 59.3 °F 29.96 in ESE 11.0 mph 15.0 mph 73% 0.00 in
05:08 68.4 °F 59.4 °F 29.96 in SE 6.0 mph 14.0 mph 73% 0.00 in
05:13 68.4 °F 59.4 °F 29.96 in SE 12.0 mph 13.0 mph 73% 0.00 in
05:18 68.5 °F 59.1 °F 29.97 in SE 9.0 mph 11.0 mph 72% 0.00 in
05:23 68.4 °F 59.4 °F 29.97 in SE 6.0 mph 12.0 mph 73% 0.00 in
05:28 68.4 °F 59.0 °F 29.97 in ESE 10.0 mph 15.0 mph 72% 0.00 in
05:33 68.4 °F 59.4 °F 29.97 in ESE 13.0 mph 14.0 mph 73% 0.00 in
05:38 68.4 °F 59.4 °F 29.97 in SE 6.0 mph 13.0 mph 73% 0.00 in
05:43 68.4 °F 59.4 °F 29.97 in SE 10.0 mph 11.0 mph 73% 0.00 in
05:48 68.3 °F 59.3 °F 29.97 in SE 5.0 mph 10.0 mph 73% 0.00 in
05:53 68.1 °F 59.1 °F 29.97 in ESE 11.0 mph 12.0 mph 73% 0.00 in
05:58 68.1 °F 59.1 °F 29.97 in SE 6.0 mph 11.0 mph 73% 0.00 in
06:03 68.0 °F 59.4 °F 29.97 in SE 11.0 mph 12.0 mph 74% 0.00 in
06:08 68.0 °F 59.4 °F 29.97 in ESE 8.0 mph 13.0 mph 74% 0.00 in
06:13 67.8 °F 59.6 °F 29.97 in SE 10.0 mph 13.0 mph 75% 0.00 in
06:18 67.5 °F 59.3 °F 29.97 in ESE 7.0 mph 12.0 mph 75% 0.00 in
06:23 67.3 °F 59.5 °F 29.97 in ESE 8.0 mph 13.0 mph 76% 0.00 in
06:28 67.2 °F 59.4 °F 29.97 in ESE 10.0 mph 10.0 mph 76% 0.00 in
06:33 67.2 °F 59.4 °F 29.97 in SE 10.0 mph 10.0 mph 76% 0.00 in
06:38 67.2 °F 59.4 °F 29.97 in SE 7.0 mph 10.0 mph 76% 0.00 in
06:43 67.1 °F 59.3 °F 29.98 in SE 8.0 mph 11.0 mph 76% 0.00 in
06:48 67.1 °F 59.3 °F 29.98 in SE 5.0 mph 9.0 mph 76% 0.00 in
06:53 67.1 °F 59.3 °F 29.98 in ESE 8.0 mph 10.0 mph 76% 0.00 in
06:58 67.1 °F 59.3 °F 29.98 in SE 8.0 mph 12.0 mph 76% 0.00 in
07:03 66.9 °F 59.5 °F 29.98 in ESE 8.0 mph 10.0 mph 77% 0.00 in
07:08 66.9 °F 59.5 °F 29.98 in SE 8.0 mph 10.0 mph 77% 0.00 in
07:13 66.9 °F 59.5 °F 29.98 in SE 8.0 mph 13.0 mph 77% 0.00 in
07:18 66.9 °F 59.5 °F 29.98 in SE 11.0 mph 11.0 mph 77% 0.00 in
07:23 66.9 °F 59.8 °F 29.99 in SE 4.0 mph 10.0 mph 78% 0.00 in
07:28 66.8 °F 59.7 °F 29.99 in SE 7.0 mph 11.0 mph 78% 0.00 in
07:33 66.7 °F 59.6 °F 30.00 in SE 6.0 mph 10.0 mph 78% 0.00 in
07:38 66.7 °F 59.6 °F 30.00 in SSE 9.0 mph 11.0 mph 78% 0.00 in
07:43 66.7 °F 59.6 °F 30.00 in ESE 6.0 mph 10.0 mph 78% 0.00 in
07:48 66.6 °F 59.9 °F 30.00 in SE 6.0 mph 12.0 mph 79% 0.00 in
07:53 66.4 °F 60.0 °F 30.01 in SE 8.0 mph 8.0 mph 80% 0.00 in
07:58 66.3 °F 60.0 °F 30.01 in SE 6.0 mph 7.0 mph 80% 0.00 in
08:03 66.1 °F 59.8 °F 30.01 in ESE 7.0 mph 7.0 mph 80% 0.00 in
08:08 66.0 °F 60.0 °F 30.01 in ESE 6.0 mph 8.0 mph 81% 0.00 in
08:13 66.0 °F 60.0 °F 30.01 in SE 5.0 mph 7.0 mph 81% 0.00 in
08:19 66.0 °F 60.0 °F 30.01 in SE 6.0 mph 9.0 mph 81% 0.00 in
08:24 66.1 °F 60.1 °F 30.01 in ESE 7.0 mph 11.0 mph 81% 0.00 in
08:29 66.2 °F 60.2 °F 30.02 in SE 6.0 mph 10.0 mph 81% 0.00 in
08:34 66.3 °F 60.3 °F 30.01 in SE 7.0 mph 10.0 mph 81% 0.00 in
08:39 66.3 °F 60.3 °F 30.01 in ESE 11.0 mph 11.0 mph 81% 0.00 in
08:44 66.3 °F 60.3 °F 30.02 in SE 13.0 mph 13.0 mph 81% 0.00 in
08:49 66.3 °F 60.3 °F 30.02 in SE 7.0 mph 13.0 mph 81% 0.00 in
08:54 66.2 °F 60.2 °F 30.02 in ESE 8.0 mph 11.0 mph 81% 0.00 in
08:59 66.1 °F 60.5 °F 30.02 in ESE 7.0 mph 13.0 mph 82% 0.00 in
09:04 66.0 °F 60.3 °F 30.02 in SE 8.0 mph 12.0 mph 82% 0.00 in
09:09 66.0 °F 60.3 °F 30.02 in SE 6.0 mph 9.0 mph 82% 0.00 in
09:14 65.9 °F 60.6 °F 30.02 in ESE 4.0 mph 11.0 mph 83% 0.00 in
09:19 65.8 °F 60.5 °F 30.02 in ESE 6.0 mph 9.0 mph 83% 0.00 in
09:24 65.6 °F 60.6 °F 30.02 in ESE 7.0 mph 8.0 mph 84% 0.00 in
09:29 65.6 °F 60.6 °F 30.03 in ESE 7.0 mph 10.0 mph 84% 0.00 in
09:34 65.5 °F 60.9 °F 30.03 in ESE 8.0 mph 9.0 mph 85% 0.00 in
09:39 65.4 °F 60.8 °F 30.03 in ESE 6.0 mph 9.0 mph 85% 0.00 in
09:44 65.4 °F 61.1 °F 30.03 in SE 8.0 mph 14.0 mph 86% 0.00 in
09:49 65.5 °F 61.2 °F 30.03 in ESE 6.0 mph 11.0 mph 86% 0.00 in
09:54 65.5 °F 61.2 °F 30.03 in ESE 11.0 mph 15.0 mph 86% 0.00 in
09:59 65.6 °F 61.3 °F 30.03 in SE 5.0 mph 10.0 mph 86% 0.00 in
10:04 65.8 °F 61.5 °F 30.03 in ESE 6.0 mph 12.0 mph 86% 0.00 in
10:09 65.9 °F 61.6 °F 30.03 in ESE 11.0 mph 11.0 mph 86% 0.00 in
10:14 65.9 °F 61.6 °F 30.04 in SE 11.0 mph 11.0 mph 86% 0.00 in
10:19 65.9 °F 61.6 °F 30.03 in ESE 7.0 mph 16.0 mph 86% 0.00 in
10:24 65.9 °F 61.6 °F 30.03 in East 8.0 mph 14.0 mph 86% 0.00 in
10:29 66.0 °F 61.7 °F 30.03 in ESE 13.0 mph 14.0 mph 86% 0.00 in
10:34 66.2 °F 61.9 °F 30.03 in East 12.0 mph 14.0 mph 86% 0.00 in
10:39 66.3 °F 61.7 °F 30.03 in ESE 9.0 mph 17.0 mph 85% 0.00 in
10:40 66.3 °F 61.7 °F 30.03 in ESE 12.0 mph 17.0 mph 85% 0.00 in
10:45 66.4 °F 61.8 °F 30.03 in SE 11.0 mph 14.0 mph 85% 0.00 in
10:50 66.6 °F 62.0 °F 30.03 in ESE 9.0 mph 13.0 mph 85% 0.00 in
10:55 66.6 °F 62.0 °F 30.03 in ESE 15.0 mph 15.0 mph 85% 0.00 in
11:00 66.5 °F 61.5 °F 30.04 in ESE 10.0 mph 14.0 mph 84% 0.00 in
11:05 66.6 °F 61.6 °F 30.04 in SE 20.0 mph 20.0 mph 84% 0.00 in
11:10 66.6 °F 61.6 °F 30.04 in ESE 9.0 mph 13.0 mph 84% 0.00 in
11:15 66.7 °F 61.7 °F 30.04 in ESE 8.0 mph 12.0 mph 84% 0.00 in
11:20 66.7 °F 61.7 °F 30.05 in SSE 13.0 mph 17.0 mph 84% 0.00 in
11:25 66.7 °F 62.0 °F 30.05 in SE 11.0 mph 16.0 mph 85% 0.00 in
11:30 66.7 °F 62.0 °F 30.06 in SE 13.0 mph 15.0 mph 85% 0.00 in
11:35 66.7 °F 62.0 °F 30.06 in SE 8.0 mph 15.0 mph 85% 0.00 in
11:36 66.7 °F 62.0 °F 30.06 in ESE 8.0 mph 15.0 mph 85% 0.00 in
11:41 66.6 °F 62.0 °F 30.06 in SE 8.0 mph 19.0 mph 85% 0.00 in
11:46 66.3 °F 62.0 °F 30.06 in SE 13.0 mph 13.0 mph 86% 0.00 in
11:51 66.2 °F 62.2 °F 30.06 in SSE 8.0 mph 13.0 mph 87% 0.00 in
11:56 66.0 °F 62.0 °F 30.07 in SSE 6.0 mph 9.0 mph 87% 0.00 in
12:01 66.0 °F 62.3 °F 30.07 in SE 5.0 mph 12.0 mph 88% 0.00 in
12:06 66.0 °F 62.3 °F 30.07 in SSE 4.0 mph 12.0 mph 88% 0.00 in
12:11 66.0 °F 62.3 °F 30.07 in East 9.0 mph 11.0 mph 88% 0.00 in
12:16 66.1 °F 62.5 °F 30.07 in ESE 4.0 mph 10.0 mph 88% 0.00 in
12:21 66.1 °F 62.5 °F 30.08 in SE 7.0 mph 9.0 mph 88% 0.00 in
12:26 66.1 °F 62.8 °F 30.08 in ESE 10.0 mph 10.0 mph 89% 0.00 in
12:31 66.0 °F 62.7 °F 30.08 in ESE 5.0 mph 9.0 mph 89% 0.00 in
12:36 65.9 °F 62.6 °F 30.08 in SSE 6.0 mph 7.0 mph 89% 0.00 in
12:41 65.8 °F 62.8 °F 30.08 in SE 4.0 mph 8.0 mph 90% 0.04 in
12:42 65.7 °F 62.7 °F 30.08 in ESE 4.0 mph 8.0 mph 90% 0.04 in
12:47 65.7 °F 62.7 °F 30.08 in ESE 4.0 mph 6.0 mph 90% 0.04 in
12:52 65.6 °F 62.9 °F 30.08 in SE 5.0 mph 6.0 mph 91% 0.07 in
12:57 65.5 °F 62.8 °F 30.08 in SE 3.0 mph 5.0 mph 91% 0.07 in
13:03 65.5 °F 62.8 °F 30.08 in ESE 4.0 mph 6.0 mph 91% 0.07 in
13:08 65.5 °F 62.8 °F 30.08 in ESE 5.0 mph 8.0 mph 91% 0.07 in
13:13 65.5 °F 63.1 °F 30.08 in SE 6.0 mph 9.0 mph 92% 0.13 in
13:18 65.4 °F 63.0 °F 30.08 in ESE 5.0 mph 8.0 mph 92% 0.10 in
13:23 65.3 °F 62.9 °F 30.08 in ESE 7.0 mph 10.0 mph 92% 0.18 in
13:28 65.2 °F 62.8 °F 30.07 in ESE 5.0 mph 10.0 mph 92% 0.13 in
13:33 65.2 °F 62.8 °F 30.07 in SE 5.0 mph 11.0 mph 92% 0.08 in
13:38 65.2 °F 62.5 °F 30.07 in SE 7.0 mph 14.0 mph 91% 0.08 in
13:43 65.2 °F 62.5 °F 30.07 in ESE 7.0 mph 13.0 mph 91% 0.07 in
13:48 65.2 °F 62.8 °F 30.07 in SE 12.0 mph 12.0 mph 92% 0.10 in
13:53 65.2 °F 62.8 °F 30.07 in SE 7.0 mph 10.0 mph 92% 0.11 in
13:58 65.2 °F 62.8 °F 30.07 in SE 5.0 mph 9.0 mph 92% 0.13 in
14:03 65.2 °F 63.1 °F 30.07 in SE 10.0 mph 12.0 mph 93% 0.10 in
14:08 65.3 °F 62.9 °F 30.07 in South 8.0 mph 10.0 mph 92% 0.10 in
14:13 65.3 °F 63.2 °F 30.08 in ESE 15.0 mph 15.0 mph 93% 0.11 in
14:18 65.1 °F 62.7 °F 30.07 in SE 8.0 mph 14.0 mph 92% 0.23 in
14:23 65.0 °F 62.6 °F 30.07 in SE 12.0 mph 15.0 mph 92% 0.26 in
14:28 64.8 °F 62.4 °F 30.07 in ESE 15.0 mph 22.0 mph 92% 0.09 in
14:33 64.9 °F 62.5 °F 30.06 in SE 10.0 mph 15.0 mph 92% 0.09 in
14:38 64.9 °F 62.2 °F 30.06 in ESE 15.0 mph 16.0 mph 91% 0.06 in
14:43 65.0 °F 62.3 °F 30.06 in SE 14.0 mph 20.0 mph 91% 0.04 in
14:48 65.0 °F 62.3 °F 30.06 in SE 9.0 mph 16.0 mph 91% 0.00 in
14:53 64.8 °F 62.1 °F 30.06 in SE 13.0 mph 15.0 mph 91% 0.00 in
14:58 64.6 °F 61.6 °F 30.05 in SE 11.0 mph 18.0 mph 90% 0.00 in
15:03 64.3 °F 61.6 °F 30.04 in ESE 13.0 mph 16.0 mph 91% 0.00 in
15:08 64.2 °F 61.5 °F 30.03 in ESE 14.0 mph 19.0 mph 91% 0.00 in
15:13 64.1 °F 61.4 °F 30.03 in SE 13.0 mph 16.0 mph 91% 0.00 in
15:18 63.9 °F 61.2 °F 30.02 in ESE 13.0 mph 18.0 mph 91% 0.00 in
15:23 63.8 °F 61.1 °F 30.01 in ESE 13.0 mph 19.0 mph 91% 0.00 in
15:29 63.6 °F 60.9 °F 30.02 in ESE 11.0 mph 19.0 mph 91% 0.00 in
15:34 63.6 °F 61.2 °F 30.02 in ESE 9.0 mph 19.0 mph 92% 0.00 in
15:39 63.5 °F 61.1 °F 30.03 in SSE 11.0 mph 17.0 mph 92% 0.00 in
15:44 63.6 °F 61.2 °F 30.04 in SE 6.0 mph 15.0 mph 92% 0.00 in
15:49 63.7 °F 61.3 °F 30.02 in SE 18.0 mph 18.0 mph 92% 0.00 in
15:54 63.9 °F 61.5 °F 30.01 in East 17.0 mph 20.0 mph 92% 0.00 in
15:59 63.8 °F 61.4 °F 30.01 in ESE 10.0 mph 19.0 mph 92% 0.00 in
16:04 63.8 °F 61.4 °F 30.01 in ESE 15.0 mph 18.0 mph 92% 0.00 in
16:09 63.7 °F 61.6 °F 30.01 in ESE 15.0 mph 17.0 mph 93% 0.00 in
16:14 63.6 °F 61.5 °F 30.00 in ESE 13.0 mph 18.0 mph 93% 0.00 in
16:19 63.6 °F 61.5 °F 29.99 in ESE 14.0 mph 18.0 mph 93% 0.00 in
16:24 63.6 °F 61.5 °F 29.99 in ESE 21.0 mph 21.0 mph 93% 0.00 in
16:29 63.6 °F 61.5 °F 29.96 in East 18.0 mph 18.0 mph 93% 0.00 in
16:34 63.5 °F 61.4 °F 29.94 in ESE 9.0 mph 26.0 mph 93% 0.00 in
16:40 63.5 °F 61.4 °F 29.96 in SE 9.0 mph 19.0 mph 93% 0.00 in
16:45 63.5 °F 61.1 °F 29.97 in SSE 7.0 mph 11.0 mph 92% 0.00 in
16:50 63.6 °F 61.2 °F 29.98 in SE 3.0 mph 7.0 mph 92% 0.00 in
16:55 63.8 °F 61.4 °F 29.98 in South 2.0 mph 8.0 mph 92% 0.00 in
17:00 64.0 °F 61.6 °F 29.99 in SW 4.0 mph 13.0 mph 92% 0.00 in
17:05 64.1 °F 61.4 °F 29.99 in SSE 5.0 mph 8.0 mph 91% 0.00 in
17:10 64.2 °F 61.5 °F 29.99 in SSE 9.0 mph 9.0 mph 91% 0.00 in
17:15 64.3 °F 61.6 °F 29.98 in SSE 4.0 mph 7.0 mph 91% 0.00 in
17:20 64.5 °F 61.8 °F 29.98 in SSW 4.0 mph 9.0 mph 91% 0.00 in
17:25 64.6 °F 61.9 °F 29.99 in South 5.0 mph 7.0 mph 91% 0.00 in
17:30 64.7 °F 61.7 °F 30.00 in SSE 8.0 mph 9.0 mph 90% 0.00 in
17:35 64.8 °F 61.8 °F 30.00 in SSE 5.0 mph 8.0 mph 90% 0.00 in
17:36 64.9 °F 61.9 °F 30.00 in South 5.0 mph 8.0 mph 90% 0.00 in
17:41 64.9 °F 61.9 °F 30.00 in SSE 9.0 mph 9.0 mph 90% 0.00 in
17:46 65.0 °F 62.0 °F 29.99 in SE 10.0 mph 11.0 mph 90% 0.00 in
17:51 65.1 °F 62.1 °F 29.98 in SE 8.0 mph 10.0 mph 90% 0.00 in
17:56 65.2 °F 62.2 °F 29.98 in SE 7.0 mph 10.0 mph 90% 0.00 in
18:01 65.3 °F 62.3 °F 29.97 in ESE 7.0 mph 10.0 mph 90% 0.00 in
18:06 65.3 °F 62.0 °F 29.97 in SE 8.0 mph 12.0 mph 89% 0.00 in
18:11 65.4 °F 62.1 °F 29.98 in ESE 13.0 mph 13.0 mph 89% 0.00 in
18:16 65.4 °F 61.8 °F 29.98 in SSE 10.0 mph 12.0 mph 88% 0.00 in
18:22 65.5 °F 61.9 °F 29.98 in SSE 9.0 mph 13.0 mph 88% 0.00 in
18:27 65.6 °F 62.3 °F 29.98 in SE 11.0 mph 14.0 mph 89% 0.00 in
18:32 65.6 °F 62.3 °F 29.98 in ESE 13.0 mph 18.0 mph 89% 0.00 in
18:37 65.6 °F 62.3 °F 29.98 in SE 6.0 mph 13.0 mph 89% 0.00 in
18:42 65.5 °F 62.2 °F 29.98 in SSE 11.0 mph 12.0 mph 89% 0.00 in
18:47 65.5 °F 62.2 °F 29.98 in SE 8.0 mph 13.0 mph 89% 0.00 in
18:52 65.5 °F 62.5 °F 29.98 in SSE 6.0 mph 12.0 mph 90% 0.00 in
18:57 65.5 °F 62.5 °F 29.98 in ESE 7.0 mph 12.0 mph 90% 0.00 in
19:02 65.4 °F 62.4 °F 29.99 in ESE 11.0 mph 15.0 mph 90% 0.00 in
19:07 65.5 °F 62.5 °F 29.98 in SE 5.0 mph 11.0 mph 90% 0.00 in
19:12 65.4 °F 62.4 °F 29.98 in ESE 8.0 mph 13.0 mph 90% 0.00 in
19:17 65.3 °F 62.6 °F 29.99 in SE 6.0 mph 12.0 mph 91% 0.00 in
19:22 65.2 °F 62.5 °F 29.99 in SE 7.0 mph 12.0 mph 91% 0.00 in
19:27 65.2 °F 62.5 °F 29.99 in SE 6.0 mph 8.0 mph 91% 0.00 in
19:32 65.2 °F 62.5 °F 29.99 in SE 8.0 mph 10.0 mph 91% 0.00 in
19:37 65.1 °F 62.4 °F 29.99 in SE 5.0 mph 12.0 mph 91% 0.00 in
19:42 65.0 °F 62.3 °F 29.99 in ESE 5.0 mph 10.0 mph 91% 0.00 in
19:47 64.9 °F 62.2 °F 29.99 in SE 7.0 mph 10.0 mph 91% 0.00 in
19:52 64.9 °F 62.2 °F 29.99 in ESE 8.0 mph 10.0 mph 91% 0.00 in
19:57 64.8 °F 62.1 °F 29.99 in SE 5.0 mph 7.0 mph 91% 0.00 in
20:02 64.7 °F 62.0 °F 30.00 in SE 5.0 mph 9.0 mph 91% 0.00 in
20:07 64.8 °F 62.1 °F 29.99 in ESE 7.0 mph 8.0 mph 91% 0.00 in
20:12 64.7 °F 62.0 °F 30.00 in SE 5.0 mph 7.0 mph 91% 0.00 in
20:18 64.6 °F 61.9 °F 29.99 in SE 3.0 mph 9.0 mph 91% 0.00 in
20:23 64.4 °F 61.7 °F 29.99 in ESE 5.0 mph 8.0 mph 91% 0.00 in
20:28 64.4 °F 61.7 °F 29.99 in ESE 6.0 mph 6.0 mph 91% 0.00 in
20:33 64.4 °F 61.7 °F 29.99 in SE 5.0 mph 7.0 mph 91% 0.00 in
20:38 64.3 °F 61.6 °F 29.99 in ESE 7.0 mph 8.0 mph 91% 0.00 in
20:43 64.2 °F 61.5 °F 29.99 in SE 4.0 mph 7.0 mph 91% 0.00 in
20:48 64.1 °F 61.4 °F 29.99 in ESE 4.0 mph 7.0 mph 91% 0.00 in
20:53 64.0 °F 61.6 °F 29.99 in SE 3.0 mph 6.0 mph 92% 0.00 in
20:58 63.9 °F 61.5 °F 29.99 in SE 5.0 mph 6.0 mph 92% 0.00 in
21:03 63.7 °F 61.3 °F 29.99 in ESE 3.0 mph 4.0 mph 92% 0.00 in
21:08 63.6 °F 61.2 °F 29.99 in SE 4.0 mph 6.0 mph 92% 0.00 in
21:13 63.5 °F 61.1 °F 29.99 in SE 4.0 mph 6.0 mph 92% 0.00 in
21:18 63.3 °F 60.9 °F 29.99 in ESE 4.0 mph 8.0 mph 92% 0.00 in
21:23 63.3 °F 60.9 °F 29.99 in SE 4.0 mph 7.0 mph 92% 0.00 in
21:28 63.3 °F 60.9 °F 29.99 in ESE 3.0 mph 7.0 mph 92% 0.00 in
21:33 63.2 °F 60.8 °F 30.00 in ESE 5.0 mph 7.0 mph 92% 0.00 in
21:38 63.0 °F 60.6 °F 29.99 in SE 3.0 mph 7.0 mph 92% 0.00 in
21:43 62.9 °F 60.5 °F 29.99 in ESE 6.0 mph 8.0 mph 92% 0.00 in
21:48 62.7 °F 60.3 °F 29.99 in ESE 7.0 mph 8.0 mph 92% 0.00 in
21:53 62.6 °F 60.2 °F 29.99 in ESE 6.0 mph 9.0 mph 92% 0.00 in
21:58 62.5 °F 60.5 °F 29.99 in SE 6.0 mph 8.0 mph 93% 0.00 in
22:03 62.6 °F 60.2 °F 29.99 in ESE 6.0 mph 10.0 mph 92% 0.00 in
22:08 62.5 °F 60.2 °F 29.99 in ESE 6.0 mph 9.0 mph 92% 0.00 in
22:13 62.4 °F 60.0 °F 29.99 in SE 5.0 mph 9.0 mph 92% 0.00 in
22:18 62.3 °F 60.0 °F 30.00 in SE 4.0 mph 8.0 mph 92% 0.00 in
22:23 62.2 °F 59.8 °F 30.00 in ESE 5.0 mph 7.0 mph 92% 0.00 in
22:28 62.1 °F 60.1 °F 30.00 in ESE 4.0 mph 7.0 mph 93% 0.00 in
22:33 62.0 °F 60.0 °F 30.00 in ESE 5.0 mph 6.0 mph 93% 0.00 in
22:38 62.0 °F 60.0 °F 30.00 in ESE 5.0 mph 5.0 mph 93% 0.00 in
22:43 61.9 °F 59.9 °F 30.00 in ESE 5.0 mph 7.0 mph 93% 0.00 in
22:48 61.8 °F 59.8 °F 30.00 in East 6.0 mph 6.0 mph 93% 0.00 in
22:53 61.7 °F 59.7 °F 30.00 in ESE 5.0 mph 9.0 mph 93% 0.00 in
22:58 61.6 °F 59.6 °F 30.00 in ESE 6.0 mph 7.0 mph 93% 0.00 in
23:03 61.6 °F 59.6 °F 30.00 in ESE 4.0 mph 6.0 mph 93% 0.00 in
23:09 61.6 °F 59.6 °F 30.00 in ESE 4.0 mph 6.0 mph 93% 0.00 in
23:14 61.7 °F 59.7 °F 30.00 in ESE 3.0 mph 6.0 mph 93% 0.00 in
23:19 61.8 °F 59.8 °F 30.00 in ESE 5.0 mph 7.0 mph 93% 0.00 in
23:24 61.8 °F 59.8 °F 30.00 in ESE 4.0 mph 7.0 mph 93% 0.00 in
23:29 61.8 °F 59.8 °F 30.00 in ESE 5.0 mph 8.0 mph 93% 0.00 in
23:34 61.9 °F 59.9 °F 30.00 in ESE 3.0 mph 7.0 mph 93% 0.00 in
23:39 61.9 °F 59.9 °F 30.00 in ESE 6.0 mph 6.0 mph 93% 0.00 in
23:44 61.9 °F 59.9 °F 30.00 in ESE 4.0 mph 6.0 mph 93% 0.00 in
23:49 62.0 °F 60.0 °F 30.00 in SE 3.0 mph 5.0 mph 93% 0.00 in
23:54 62.0 °F 59.7 °F 30.00 in SE 4.0 mph 6.0 mph 92% 0.00 in
23:59 62.1 °F 59.8 °F 30.00 in SE 3.0 mph 6.0 mph 92% 0.00 in
Compliments of Weather Underground